User: anonymous   Login
Location: Niverville
(49.6028°N, 97.0419°W)
Time: 06:26:48
(UTC-05:00)
Language:

Cosmos 2237 Rocket - Orbit

View from above orbital plane
View from above orbital plane
View from above satellite
View from above satellite

Ground track
Ground track

The orbit data is extracted from the following two-line orbital elements,

1 22566U 93016B   16149.48165193  .00000177  00000-0  11593-3 0  9995
2 22566  71.0044 154.4321 0010464 347.2521  12.8336 14.14926414196856
Epoch (UTC): 28 May 2016 11:33:34
Eccentricity: 0.0010464
inclination: 71.0044°
perigee height: 835 km
apogee height: 850 km
right ascension of ascending node: 154.4321°
argument of perigee: 347.2521°
revolutions per day: 14.14926414
mean anomaly at epoch: 12.8336°
orbit number at epoch: 19685

The dashed part of the orbit path shows where the satellite is in the earth's shadow,  

DLR